Time,TemperatureF,DewpointF,PressureIn,WindDirection,WindDirectionDegrees,WindSpeedMPH,WindSpeedGustMPH,Humidity,HourlyPrecipIn,Conditions,Clouds,dailyrainin,SoftwareType,DateUTC
2013-01-30 00:03:00,53.2,52.0,29.50,North,350,1.0,8.0,94,0.27,,,0.87,weatherlink.com 1.10,2013-01-30 06:03:00,
2013-01-30 00:18:00,53.2,52.0,29.51,North,350,0.0,3.0,95,0.27,,,0.05,weatherlink.com 1.10,2013-01-30 06:18:00,
2013-01-30 00:33:00,53.0,52.0,29.48,North,350,0.0,2.0,95,0.22,,,0.08,weatherlink.com 1.10,2013-01-30 06:33:00,
2013-01-30 00:48:00,52.9,52.0,29.49,SE,145,0.0,6.0,95,0.15,,,0.09,weatherlink.com 1.10,2013-01-30 06:48:00,
2013-01-30 01:03:00,52.8,52.0,29.48,SE,145,0.0,1.0,95,0.13,,,0.13,weatherlink.com 1.10,2013-01-30 07:03:00,
2013-01-30 01:18:00,52.7,51.0,29.51,SE,145,3.0,4.0,95,0.10,,,0.15,weatherlink.com 1.10,2013-01-30 07:18:00,
2013-01-30 01:33:00,52.7,51.0,29.50,SE,145,2.0,4.0,95,0.10,,,0.18,weatherlink.com 1.10,2013-01-30 07:33:00,
2013-01-30 01:48:00,52.6,52.0,29.49,SE,145,3.0,3.0,96,0.09,,,0.19,weatherlink.com 1.10,2013-01-30 07:48:00,
2013-01-30 02:03:00,52.5,51.0,29.49,SE,145,3.0,5.0,96,0.08,,,0.21,weatherlink.com 1.10,2013-01-30 08:03:00,
2013-01-30 02:18:00,52.4,51.0,29.46,SE,145,2.0,3.0,96,0.07,,,0.22,weatherlink.com 1.10,2013-01-30 08:18:00,
2013-01-30 02:33:00,52.4,51.0,29.47,SSE,148,5.0,5.0,96,0.06,,,0.24,weatherlink.com 1.10,2013-01-30 08:33:00,
2013-01-30 02:48:00,52.3,51.0,29.46,SSE,147,4.0,7.0,96,0.05,,,0.24,weatherlink.com 1.10,2013-01-30 08:48:00,
2013-01-30 03:03:00,52.1,51.0,29.45,SSE,166,6.0,7.0,96,0.03,,,0.24,weatherlink.com 1.10,2013-01-30 09:03:00,
2013-01-30 03:18:00,52.1,51.0,29.45,SSE,155,6.0,7.0,96,0.02,,,0.24,weatherlink.com 1.10,2013-01-30 09:18:00,
2013-01-30 03:33:00,52.1,51.0,29.43,SE,146,3.0,8.0,96,0.00,,,0.24,weatherlink.com 1.10,2013-01-30 09:33:00,
2013-01-30 03:48:00,52.2,51.0,29.45,SSE,150,9.0,12.0,96,0.01,,,0.25,weatherlink.com 1.10,2013-01-30 09:48:00,
2013-01-30 04:03:00,52.1,51.0,29.42,SE,140,6.0,8.0,96,0.01,,,0.25,weatherlink.com 1.10,2013-01-30 10:03:00,
2013-01-30 04:18:00,52.0,51.0,29.40,SE,142,3.0,8.0,96,0.01,,,0.25,weatherlink.com 1.10,2013-01-30 10:18:00,
2013-01-30 04:33:00,51.9,51.0,29.39,SSE,158,4.0,8.0,96,0.01,,,0.25,weatherlink.com 1.10,2013-01-30 10:33:00,
2013-01-30 04:48:00,51.8,51.0,29.39,SSE,158,3.0,7.0,96,0.00,,,0.25,weatherlink.com 1.10,2013-01-30 10:48:00,
2013-01-30 05:03:00,51.8,51.0,29.41,SSE,168,4.0,7.0,96,0.00,,,0.25,weatherlink.com 1.10,2013-01-30 11:03:00,
2013-01-30 05:18:00,51.7,51.0,29.41,South,170,7.0,9.0,96,0.00,,,0.25,weatherlink.com 1.10,2013-01-30 11:18:00,
2013-01-30 05:33:00,51.7,51.0,29.43,South,184,5.0,10.0,96,0.00,,,0.25,weatherlink.com 1.10,2013-01-30 11:33:00,
2013-01-30 05:48:00,51.7,51.0,29.43,South,183,7.0,10.0,96,0.00,,,0.25,weatherlink.com 1.10,2013-01-30 11:48:00,
2013-01-30 06:03:00,51.8,51.0,29.42,South,171,7.0,10.0,96,0.00,,,0.25,weatherlink.com 1.10,2013-01-30 12:03:00,
2013-01-30 06:18:00,51.9,51.0,29.42,South,190,5.0,10.0,96,0.00,,,0.25,weatherlink.com 1.10,2013-01-30 12:18:00,
2013-01-30 06:33:00,51.9,51.0,29.41,South,186,8.0,12.0,95,0.00,,,0.25,weatherlink.com 1.10,2013-01-30 12:33:00,
2013-01-30 06:48:00,52.0,51.0,29.43,South,186,7.0,15.0,95,0.00,,,0.25,weatherlink.com 1.10,2013-01-30 12:48:00,
2013-01-30 07:03:00,52.2,51.0,29.42,South,182,9.0,12.0,95,0.00,,,0.25,weatherlink.com 1.10,2013-01-30 13:03:00,
2013-01-30 07:18:00,52.4,51.0,29.41,South,186,10.0,15.0,94,0.00,,,0.25,weatherlink.com 1.10,2013-01-30 13:18:00,
2013-01-30 07:33:00,52.5,51.0,29.42,South,187,5.0,14.0,94,0.00,,,0.25,weatherlink.com 1.10,2013-01-30 13:33:00,
2013-01-30 07:48:00,52.7,51.0,29.42,SSW,211,11.0,15.0,94,0.00,,,0.25,weatherlink.com 1.10,2013-01-30 13:48:00,
2013-01-30 08:03:00,52.8,51.0,29.42,SW,215,8.0,12.0,94,0.00,,,0.25,weatherlink.com 1.10,2013-01-30 14:03:00,
2013-01-30 08:18:00,53.0,51.0,29.42,SW,217,12.0,18.0,93,0.00,,,0.25,weatherlink.com 1.10,2013-01-30 14:18:00,
2013-01-30 08:33:00,53.2,51.0,29.41,SSW,207,9.0,15.0,93,0.00,,,0.25,weatherlink.com 1.10,2013-01-30 14:33:00,
2013-01-30 08:48:00,53.4,51.0,29.41,South,176,14.0,15.0,92,0.00,,,0.25,weatherlink.com 1.10,2013-01-30 14:48:00,
2013-01-30 09:03:00,53.9,51.0,29.41,SSW,192,7.0,16.0,91,0.00,,,0.25,weatherlink.com 1.10,2013-01-30 15:03:00,
2013-01-30 09:18:00,54.2,52.0,29.41,SSW,198,9.0,15.0,91,0.00,,,0.25,weatherlink.com 1.10,2013-01-30 15:18:00,
2013-01-30 09:33:00,54.4,52.0,29.41,SSW,197,13.0,17.0,90,0.00,,,0.25,weatherlink.com 1.10,2013-01-30 15:33:00,
2013-01-30 09:48:00,54.6,52.0,29.40,SSW,197,12.0,21.0,90,0.00,,,0.25,weatherlink.com 1.10,2013-01-30 15:48:00,
2013-01-30 10:03:00,55.7,52.0,29.39,SSW,208,7.0,21.0,87,0.00,,,0.25,weatherlink.com 1.10,2013-01-30 16:03:00,
2013-01-30 10:18:00,55.7,51.0,29.39,SSW,213,10.0,16.0,85,0.00,,,0.25,weatherlink.com 1.10,2013-01-30 16:18:00,
2013-01-30 10:33:00,54.6,51.0,29.39,SSW,209,5.0,14.0,88,0.01,,,0.26,weatherlink.com 1.10,2013-01-30 16:33:00,
2013-01-30 10:49:00,51.6,49.0,29.39,SW,221,14.0,19.0,89,0.18,,,0.43,weatherlink.com 1.10,2013-01-30 16:49:00,
2013-01-30 11:04:00,47.7,45.0,29.41,NW,306,8.0,17.0,90,0.20,,,0.45,weatherlink.com 1.10,2013-01-30 17:04:00,
2013-01-30 11:19:00,47.7,45.0,29.41,WNW,284,9.0,16.0,90,0.20,,,0.45,weatherlink.com 1.10,2013-01-30 17:19:00,
2013-01-30 11:34:00,47.7,44.0,29.41,WNW,292,10.0,19.0,87,0.19,,,0.45,weatherlink.com 1.10,2013-01-30 17:34:00,
2013-01-30 11:49:00,46.8,44.0,29.41,WNW,294,8.0,19.0,89,0.02,,,0.45,weatherlink.com 1.10,2013-01-30 17:49:00,
2013-01-30 12:04:00,46.1,43.0,29.44,NW,315,6.0,15.0,89,0.00,,,0.45,weatherlink.com 1.10,2013-01-30 18:04:00,
2013-01-30 12:19:00,45.9,43.0,29.44,WNW,289,19.0,25.0,88,0.01,,,0.46,weatherlink.com 1.10,2013-01-30 18:19:00,
2013-01-30 12:34:00,45.5,41.0,29.44,West,271,6.0,19.0,85,0.01,,,0.46,weatherlink.com 1.10,2013-01-30 18:34:00,
2013-01-30 12:49:00,45.7,41.0,29.43,NW,304,10.0,18.0,84,0.01,,,0.46,weatherlink.com 1.10,2013-01-30 18:49:00,
2013-01-30 13:04:00,45.6,40.0,29.42,WNW,300,9.0,19.0,81,0.01,,,0.46,weatherlink.com 1.10,2013-01-30 19:04:00,
2013-01-30 13:19:00,45.8,40.0,29.44,WNW,296,12.0,18.0,80,0.00,,,0.46,weatherlink.com 1.10,2013-01-30 19:19:00,
2013-01-30 13:34:00,44.3,39.0,29.45,NW,304,10.0,22.0,81,0.00,,,0.46,weatherlink.com 1.10,2013-01-30 19:34:00,
2013-01-30 13:49:00,44.0,38.0,29.46,WNW,284,8.0,20.0,79,0.00,,,0.46,weatherlink.com 1.10,2013-01-30 19:49:00,
2013-01-30 14:04:00,43.7,37.0,29.47,West,281,15.0,21.0,77,0.00,,,0.46,weatherlink.com 1.10,2013-01-30 20:04:00,
2013-01-30 14:19:00,43.7,37.0,29.47,WNW,298,15.0,24.0,76,0.00,,,0.46,weatherlink.com 1.10,2013-01-30 20:19:00,
2013-01-30 14:34:00,42.1,36.0,29.50,NW,306,14.0,23.0,78,0.00,,,0.46,weatherlink.com 1.10,2013-01-30 20:34:00,
2013-01-30 14:49:00,41.0,34.0,29.52,NW,314,14.0,26.0,76,0.00,,,0.46,weatherlink.com 1.10,2013-01-30 20:49:00,
2013-01-30 15:04:00,40.4,34.0,29.52,WNW,284,7.0,23.0,77,0.00,,,0.46,weatherlink.com 1.10,2013-01-30 21:04:00,
2013-01-30 15:19:00,39.7,34.0,29.54,NW,315,15.0,21.0,80,0.00,,,0.46,weatherlink.com 1.10,2013-01-30 21:19:00,
2013-01-30 15:34:00,38.3,34.0,29.56,WNW,289,12.0,20.0,83,0.00,,,0.46,weatherlink.com 1.10,2013-01-30 21:34:00,
2013-01-30 15:49:00,37.3,33.0,29.57,West,271,12.0,27.0,84,0.00,,,0.46,weatherlink.com 1.10,2013-01-30 21:49:00,
2013-01-30 16:04:00,36.7,32.0,29.59,WNW,300,13.0,22.0,84,0.00,,,0.46,weatherlink.com 1.10,2013-01-30 22:04:00,
2013-01-30 16:19:00,36.6,32.0,29.61,WNW,299,7.0,19.0,82,0.00,,,0.46,weatherlink.com 1.10,2013-01-30 22:19:00,
2013-01-30 16:35:00,35.9,31.0,29.62,WNW,288,8.0,19.0,82,0.00,,,0.46,weatherlink.com 1.10,2013-01-30 22:35:00,
2013-01-30 16:50:00,35.2,30.0,29.63,WNW,285,6.0,21.0,82,0.00,,,0.46,weatherlink.com 1.10,2013-01-30 22:50:00,
2013-01-30 17:05:00,35.0,29.0,29.64,WSW,257,11.0,20.0,80,0.00,,,0.46,weatherlink.com 1.10,2013-01-30 23:05:00,
2013-01-30 17:20:00,34.7,29.0,29.65,WSW,253,8.0,20.0,80,0.00,,,0.46,weatherlink.com 1.10,2013-01-30 23:20:00,
2013-01-30 17:35:00,34.4,29.0,29.66,NW,304,7.0,18.0,80,0.00,,,0.46,weatherlink.com 1.10,2013-01-30 23:35:00,
2013-01-30 17:50:00,34.4,29.0,29.66,WNW,302,7.0,17.0,79,0.00,,,0.46,weatherlink.com 1.10,2013-01-30 23:50:00,
2013-01-30 18:05:00,34.3,29.0,29.68,NW,306,9.0,16.0,80,0.00,,,0.46,weatherlink.com 1.10,2013-01-31 00:05:00,
2013-01-30 18:20:00,34.3,28.0,29.69,WNW,303,9.0,16.0,78,0.00,,,0.46,weatherlink.com 1.10,2013-01-31 00:20:00,
2013-01-30 18:35:00,34.1,29.0,29.70,WNW,290,9.0,22.0,80,0.00,,,0.46,weatherlink.com 1.10,2013-01-31 00:35:00,
2013-01-30 18:50:00,33.9,27.0,29.72,NW,311,9.0,28.0,77,0.00,,,0.46,weatherlink.com 1.10,2013-01-31 00:50:00,
2013-01-30 19:20:00,33.5,27.0,29.74,NW,315,10.0,21.0,78,0.00,,,0.46,weatherlink.com 1.10,2013-01-31 01:20:00,
2013-01-30 19:35:00,33.2,27.0,29.75,NW,304,9.0,19.0,79,0.00,,,0.46,weatherlink.com 1.10,2013-01-31 01:35:00,
2013-01-30 19:50:00,32.6,27.0,29.76,WNW,293,7.0,16.0,81,0.00,,,0.46,weatherlink.com 1.10,2013-01-31 01:50:00,
2013-01-30 20:05:00,32.6,27.0,29.78,West,267,11.0,24.0,80,0.00,,,0.46,weatherlink.com 1.10,2013-01-31 02:05:00,
2013-01-30 20:20:00,32.8,26.0,29.79,WNW,288,14.0,22.0,77,0.00,,,0.46,weatherlink.com 1.10,2013-01-31 02:20:00,
2013-01-30 20:35:00,32.6,26.0,29.80,WNW,288,17.0,20.0,76,0.00,,,0.46,weatherlink.com 1.10,2013-01-31 02:35:00,
2013-01-30 20:50:00,32.4,26.0,29.81,WNW,290,9.0,23.0,76,0.00,,,0.46,weatherlink.com 1.10,2013-01-31 02:50:00,
2013-01-30 21:05:00,32.2,25.0,29.82,WNW,291,13.0,23.0,74,0.00,,,0.46,weatherlink.com 1.10,2013-01-31 03:05:00,
2013-01-30 21:20:00,31.9,24.0,29.83,WNW,284,15.0,23.0,73,0.00,,,0.46,weatherlink.com 1.10,2013-01-31 03:20:00,
2013-01-30 21:35:00,31.8,24.0,29.84,West,281,13.0,22.0,72,0.00,,,0.46,weatherlink.com 1.10,2013-01-31 03:35:00,
2013-01-30 21:50:00,31.6,24.0,29.85,WNW,288,13.0,22.0,73,0.00,,,0.46,weatherlink.com 1.10,2013-01-31 03:50:00,
2013-01-30 22:06:00,31.5,24.0,29.85,WNW,288,9.0,17.0,75,0.00,,,0.46,weatherlink.com 1.10,2013-01-31 04:06:00,
2013-01-30 22:21:00,31.6,25.0,29.86,WNW,300,5.0,15.0,77,0.00,,,0.46,weatherlink.com 1.10,2013-01-31 04:21:00,
2013-01-30 22:36:00,31.6,24.0,29.87,WNW,284,14.0,18.0,73,0.00,,,0.46,weatherlink.com 1.10,2013-01-31 04:36:00,
2013-01-30 22:51:00,31.6,24.0,29.87,WNW,287,8.0,20.0,73,0.00,,,0.46,weatherlink.com 1.10,2013-01-31 04:51:00,
2013-01-30 23:06:00,31.6,23.0,29.88,WNW,283,11.0,21.0,71,0.00,,,0.46,weatherlink.com 1.10,2013-01-31 05:06:00,
2013-01-30 23:21:00,31.5,24.0,29.89,WNW,293,8.0,16.0,73,0.00,,,0.46,weatherlink.com 1.10,2013-01-31 05:21:00,
2013-01-30 23:36:00,31.4,24.0,29.89,West,269,11.0,15.0,74,0.00,,,0.46,weatherlink.com 1.10,2013-01-31 05:36:00,
2013-01-30 23:51:00,31.1,23.0,29.90,SW,227,10.0,20.0,73,0.00,,,0.46,weatherlink.com 1.10,2013-01-31 05:51:00,